This demonstration page uses our WeatherBlox Daily Observations layout. Learn more.

39.01783, -85.05884

Hourly Observations for August 26, 2020

Temp ( °F °C ) Dew Point ( °F °C ) Humidity (%) Winds ( mph kmh ) Pressure ( in mb ) Visibility ( mi km ) Precip ( " mm )
12:01 am 00:01 Mostly Cloudy with Nearby Thunderstorms 75 23.9 70 21.1 84 84 SW 3 6 30.06 1018 9 14.48406 0 0
12:09 am 00:09 Partly Cloudy with Thunderstorms 74 23.3 70 21.1 88 88 Calm 30.06 1018 8 12.87472 0 0
12:14 am 00:14 Partly Cloudy with Nearby Thunderstorms 75 23.9 69 20.6 82 82 Calm 30.07 1018 9 14.48406 0 0
12:19 am 00:19 Partly Cloudy with Light Thunderstorms 77 25 69 20.6 77 77 N 3 6 30.06 1018 9 14.48406 0.001 0.001
12:32 am 00:32 Mostly Cloudy 77 25 70 21.1 79 79 N 7 11 30.06 1018 10 16.0934 0.001 0.001
12:34 am 00:34 Mostly Cloudy with Thunderstorms 77 25 70 21.1 79 79 N 8 13 30.06 1018 10 16.0934 0.001 0.001
12:52 am 00:52 Mostly Cloudy with Thunderstorms 76 24.4 69 20.6 79 79 N 5 7 30.06 1018 10 16.0934 0.001 0.001
12:55 am 00:55 Mostly Clear with Nearby Thunderstorms 76 24.4 69 20.6 79 79 NNW 3 6 30.06 1018 10 16.0934 0 0
1:14 am 01:14 Partly Cloudy 76 24.4 69 20.6 79 79 Calm 30.05 1018 10 16.0934 0 0
1:52 am 01:52 Partly Cloudy 73 22.8 68 20 84 84 Calm 30.05 1018 10 16.0934 0 0
2:52 am 02:52 Clear 71 21.7 68 20 90 90 SSW 3 6 30.04 1017 8 12.87472 0 0
3:52 am 03:52 Mostly Cloudy 72 22.2 68 20 87 87 Calm 30.03 1017 8 12.87472 0 0
4:52 am 04:52 Partly Cloudy 72 22.2 68 20 87 87 Calm 30.04 1017 8 12.87472 0 0
5:52 am 05:52 Mostly Clear 72 22.2 68 20 87 87 Calm 30.04 1017 8 12.87472 0 0
6:52 am 06:52 Clear with Mist and Fog 69 20.6 67 19.4 93 93 S 6 9 30.06 1018 6 9.65604 0 0
7:52 am 07:52 Sunny with Patchy Fog 71 21.7 69 20.6 94 94 Calm 30.06 1018 5 8.0467 0 0
8:52 am 08:52 Sunny 75 23.9 72 22.2 90 90 S 3 6 30.06 1018 7 11.26538 0 0
9:52 am 09:52 Sunny 79 26.1 72 22.2 79 79 SW 7 11 30.06 1018 8 12.87472 0 0
10:52 am 10:52 Sunny 82 27.8 72 22.2 72 72 WSW 7 11 30.08 1019 8 12.87472 0 0
11:52 am 11:52 Mostly Sunny 84 28.9 72 22.2 67 67 SW 8 13 30.08 1019 9 14.48406 0 0
12:52 pm 12:52 Partly Cloudy 86 30 71 21.7 61 61 WSW 9 15 30.07 1018 9 14.48406 0 0
1:52 pm 13:52 Partly Cloudy 87 30.6 69 20.6 55 55 W 12 19 30.05 1018 10 16.0934 0 0
2:52 pm 14:52 Mostly Cloudy 88 31.1 69 20.6 54 54 W 10 17 30.04 1017 10 16.0934 0 0
3:52 pm 15:52 Mostly Sunny 89 31.7 69 20.6 52 52 WSW 8 13 30.01 1016 10 16.0934 0 0
4:52 pm 16:52 Partly Cloudy 86 30 70 21.1 59 59 SW 9 15 30 1016 10 16.0934 0 0
5:52 pm 17:52 Partly Cloudy 87 30.6 71 21.7 59 59 SSW 9 15 29.99 1016 10 16.0934 0 0
6:52 pm 18:52 Mostly Sunny 85 29.4 70 21.1 61 61 SW 7 11 29.98 1015 10 16.0934 0 0
7:52 pm 19:52 Mostly Sunny 83 28.3 71 21.7 67 67 SW 7 11 29.98 1015 10 16.0934 0 0
8:52 pm 20:52 Mostly Clear 80 26.7 70 21.1 71 71 SW 6 9 29.97 1015 10 16.0934 0 0
9:52 pm 21:52 Clear 79 26.1 70 21.1 74 74 SSW 6 9 29.98 1015 10 16.0934 0 0
10:52 pm 22:52 Clear 77 25 70 21.1 79 79 SSW 6 9 29.98 1015 10 16.0934 0 0
11:52 pm 23:52 Clear 77 25 71 21.7 82 82 SSW 6 9 29.97 1015 10 16.0934 0 0

Powered by AerisWeather